Flag for Poland Weather past 2 weeks in Gdynia, Poland

Now
37 °F

Fog.


Feels Like: 37 °F
Forecast: 33 / 44 °F
Wind: No wind

Location: Gdansk-Rebiechowo

Current Time: Feb 28, 2015 at 2:04:29 AM

Latest Report: Feb 28, 2015 at 1:30 AM


Visibility: 3 mi

Pressure: 29.98 "Hg

Humidity: 100%

Dew point: 37 °F

Location of GdyniaLocation

Historic Weather in Gdynia — Graph

°F

Gdynia temperature yesterday

Maximum temperature yesterday: 43 °F (at 2:30 PM)
Minimum temperature yesterday: 32 °F (at 1:00 AM)
Average temperature yesterday: 37 °F

Past Weeks' High & Low Weather Summary

 TemperatureHumidityPressure
High48 °F (Feb 21, 1:00 PM)100% (Feb 13, 3:30 AM)30.54 "Hg (Feb 13, 3:30 AM)
Low19 °F (Feb 14, 4:30 AM)43% (Feb 21, 1:00 PM)29.39 "Hg (Feb 21, 2:00 PM)
Average35 °F80%30.03 "Hg
* Reported Feb 13 1:00 AM — Feb 28 1:00 AM, Gdynia, Weather by CustomWeather, © 2015

Note: Actual official high and low records may vary slightly from our data, if they occured in-between our weather recording intervals... More about our weather records

Advertising

Gdynia weather history for previous 24 hours

 ConditionsComfort  
Time TempWeatherWind HumidityBarometerVisibility
1:00 AM
Sat, Feb 28
37 °FFog.1 mph93%29.98 "Hg3 mi
12:30 AM37 °FFog.No wind100%29.98 "Hg3 mi
12:00 AM39 °FPartly cloudy.No wind93%29.98 "Hg4 mi
11:30 PM
Fri, Feb 27
39 °FPassing clouds.1 mph93%29.98 "Hg4 mi
11:00 PM39 °FPassing clouds.1 mph93%29.98 "Hg4 mi
10:30 PM39 °FPassing clouds.2 mph93%29.98 "Hg4 mi
10:00 PM39 °FPassing clouds.No wind93%29.98 "Hg5 mi
9:30 PM39 °FPassing clouds.3 mph93%29.98 "Hg5 mi
9:00 PM39 °FPassing clouds.3 mph93%29.98 "Hg5 mi
8:30 PM39 °FPassing clouds.1 mph87%29.98 "Hg5 mi
8:00 PM39 °FPassing clouds.1 mph93%29.98 "Hg5 mi
7:30 PM39 °FPassing clouds.No wind87%29.98 "Hg5 mi
7:00 PM41 °FPassing clouds.1 mph87%29.98 "Hg5 mi
6:30 PM41 °FPassing clouds.2 mph81%29.98 "HgN/A
6:00 PM41 °FPassing clouds.1 mph81%29.98 "HgN/A
5:30 PM41 °FPassing clouds.2 mph81%29.95 "HgN/A
5:00 PM41 °FPartly sunny.2 mph87%29.95 "HgN/A
4:30 PM41 °FPartly sunny.3 mph87%29.95 "HgN/A
4:00 PM41 °FPartly sunny.3 mph81%29.95 "Hg5 mi
3:30 PM41 °FPartly sunny.5 mph81%29.95 "Hg5 mi
3:00 PM43 °FBroken clouds.6 mph81%29.95 "Hg5 mi
2:30 PM43 °FPartly sunny.6 mph76%29.95 "Hg5 mi
2:00 PM41 °FBroken clouds.6 mph81%29.95 "Hg5 mi
1:30 PM41 °FBroken clouds.6 mph87%29.98 "Hg5 mi
1:00 PM41 °FBroken clouds.6 mph87%29.98 "Hg5 mi
12:30 PM41 °FPartly sunny.6 mph87%29.98 "Hg4 mi
12:00 PM39 °FPartly sunny.8 mph87%29.98 "Hg4 mi
11:30 AM39 °FPartly sunny.7 mph93%29.98 "Hg4 mi
11:00 AM37 °FPartly sunny.7 mph100%29.98 "Hg4 mi
10:30 AM37 °FFog.7 mph100%29.98 "Hg3 mi
10:00 AM37 °FFog.6 mph100%29.98 "Hg2 mi
9:30 AM36 °FFog.6 mph100%30.01 "Hg2 mi
9:00 AM36 °FFog.7 mph100%29.98 "Hg1 mi
8:30 AM34 °FFog.3 mph100%30.01 "Hg1 mi
8:00 AM34 °FFog.2 mph100%30.01 "Hg1 mi
7:30 AM34 °FFog.2 mph100%30.01 "Hg1 mi
7:00 AM32 °FFog.2 mph100%30.01 "Hg1 mi
6:30 AM32 °FIce fog.3 mph100%30.01 "Hg1 mi
6:00 AM32 °FIce fog.6 mph100%30.01 "Hg1 mi
5:30 AM32 °FIce fog.6 mph100%30.01 "Hg1 mi
4:30 AM32 °FIce fog.3 mph100%30.01 "Hg0 mi
4:00 AM32 °FIce fog.6 mph100%30.04 "Hg0 mi
3:30 AM32 °FIce fog.2 mph100%30.04 "Hg0 mi
3:00 AM32 °FIce fog.2 mph100%30.04 "Hg0 mi
2:30 AM32 °FFog.3 mph100%30.04 "Hg0 mi
2:00 AM32 °FFog.3 mph100%30.07 "Hg0 mi
Weather by CustomWeather, © 2015

See weather overviewHow to use our weather pages